ELEKTRO-L 3 (44903 NORAD) Tracking and Keplerian Element Data

This shows tracking and keplerian element data for the satellite.

Feedback or suggestion? Click here.




ElementValue
Catalog44903
NameELEKTRO-L 3
Epoch Orbit94
Epoch Day87.62081573
Epoch Year2020
RAAN282.7166
Inclination0.3587
Eccentricity0.0003464
Argument of Perigee55.9008
Mean Anonmoly236.1224
Mean Motion1.002718
Decay Rate-6.1E-07
L11 44903U 19095A 20087.62081573 -.00000061 00000-0 00000-0 0 9991
L22 44903 0.3587 282.7166 0003464 55.9008 236.1224 1.00271800 943

Live tracking and technical data element details for ELEKTRO-L 3 (NORAD 44903). ELEKTRO-L 3 can be tracked NOW for your location showing map with azimuth and elevation plus other details from your city location.

Track the satellite on the map from your city or location and see movement details for azimuth, elevation, latitude, longitude, range, height, and movement on the map or in text.







IsCatalogInMostPopularTable: catalog: 44903, numindb: 26
Update: records affected: 1



GetName: 44903 ELEKTRO-L 3

Hit Count: updated at: Sat, 28 Mar 2020 20:30:14 GMT